(°C)
(°C)
-2°
-2°
-2°
-2°
-2°
-3°
KB
KB
KKB
KKB
KKB
KKB
KKB
(km/saat)
23-37
24-38
22-36
19-33
15-27
12-22
11-18
(mm)
0
0
0
0
0
0
0
(%)
0
0
0
1
0
0
0

Güneşin açısı

/ 21.6°
sun-icon
UV 1
07:53
18:02
Azalan ay (244°)
21:03
13:47

51.02°K 71.47°D (UACC) için METAR

Zaman Koşullar Sıcaklık/
Çiy noktası
Rüzgar Görünürlük Hava Bulutlar Basınç Değiştir Ham
VFR 6°C / -1°C 330º variable 300º to 360º 14kt >10km - Few Clouds 2300ft 1012 No Significant change. Runway 04: Clear and dry, , friction coefficient 0.70. UACC 260830Z 33007MPS 300V360 9999 FEW023CB 06/M01 Q1012 R04/0///70 NOSIG RMK QFE727/0970
VFR 8°C / 2°C 310º 14kt >10km - Few Clouds 2600ft 1011 No Significant change. Runway 22: Clear and dry, , friction coefficient 0.70. UACC 260800Z 31007MPS 9999 FEW026CB 08/02 Q1011 R22/0///70 NOSIG RMK QFE727/0969
VFR 9°C / 1°C 310º 14kt >10km - Scattered Clouds 3000ft 1010 No Significant change. Runway 22: Clear and dry, , friction coefficient 0.70. UACC 260730Z 31007MPS 9999 SCT030 09/01 Q1010 R22/0///70 NOSIG RMK QFE726/0969
VFR 9°C / 1°C 300º 12kt >10km - Clouds and Visibility OK 1009 No Significant change. Runway 22: Clear and dry, , friction coefficient 0.70. UACC 260700Z 30006MPS CAVOK 09/01 Q1009 R22/0///70 NOSIG RMK QFE726/0968
VFR 9°C / 0°C 300º variable 270º to 330º 10kt >10km - Clouds and Visibility OK 1009 No Significant change. Runway 22: Clear and dry, , friction coefficient 0.70. UACC 260630Z 30005MPS 270V330 CAVOK 09/00 Q1009 R22/0///70 NOSIG RMK QFE725/0967
VFR 9°C / 0°C 290º 10kt >10km - Few Clouds 1400ft 1008 No Significant change. Runway 22: Clear and dry, , friction coefficient 0.70. UACC 260600Z 29005MPS 9999 FEW014 09/00 Q1008 R22/0///70 NOSIG RMK QFE725/0967
VFR 8°C / -1°C 270º variable 250º to 310º 12kt >10km - Few Clouds 1400ft 1008 No Significant change. Runway 22: Clear and dry, , friction coefficient 0.70. UACC 260530Z 27006MPS 250V310 9999 FEW014 08/M01 Q1008 R22/0///70 NOSIG RMK QFE725/0967
VFR 8°C / -2°C 250º 12kt >10km - Clouds and Visibility OK 1008 No Significant change. Runway 22: Clear and dry, , friction coefficient 0.70. UACC 260500Z 25006MPS CAVOK 08/M02 Q1008 R22/0///70 NOSIG RMK QFE725/0967
VFR 8°C / -2°C 240º 12kt >10km - Clouds and Visibility OK 1008 No Significant change. Runway 22: Clear and dry, , friction coefficient 0.70. UACC 260430Z 24006MPS CAVOK 08/M02 Q1008 R22/0///70 NOSIG RMK QFE725/0967
VFR 7°C / -2°C 220º 12kt >10km - Clouds and Visibility OK 1008 No Significant change. Runway 22: Clear and dry, , friction coefficient 0.70. UACC 260400Z 22006MPS CAVOK 07/M02 Q1008 R22/0///70 NOSIG RMK QFE725/0966
VFR 5°C / -2°C 220º 12kt >10km - Clouds and Visibility OK 1008 No Significant change. Runway 22: Clear and dry, , friction coefficient 0.70. UACC 260330Z 22006MPS CAVOK 05/M02 Q1008 R22/0///70 NOSIG RMK QFE725/0966
VFR 5°C / -2°C 210º 10kt >10km - Clouds and Visibility OK 1007 No Significant change. Runway 22: Clear and dry, , friction coefficient 0.70. UACC 260300Z 21005MPS CAVOK 05/M02 Q1007 R22/0///70 NOSIG RMK QFE725/0966
VFR 5°C / -2°C 210º 8kt >10km - Clouds and Visibility OK 1007 No Significant change. Runway 22: Clear and dry, , friction coefficient 0.70. UACC 260230Z 21004MPS CAVOK 05/M02 Q1007 R22/0///70 NOSIG RMK QFE725/0966
VFR 4°C / -3°C 200º 10kt >10km - Clouds and Visibility OK 1007 No Significant change. Runway 22: Clear and dry, , friction coefficient 0.70. UACC 260200Z 20005MPS CAVOK 04/M03 Q1007 R22/0///70 NOSIG RMK QFE725/0966
VFR 4°C / -3°C 200º 10kt >10km - Clouds and Visibility OK 1007 No Significant change. Runway 22: Clear and dry, , friction coefficient 0.70. UACC 260130Z 20005MPS CAVOK 04/M03 Q1007 R22/0///70 NOSIG RMK QFE725/0966
VFR 4°C / -2°C 200º 10kt >10km - Clouds and Visibility OK 1008 No Significant change. Runway 22: Clear and dry, , friction coefficient 0.70. UACC 260100Z 20005MPS CAVOK 04/M02 Q1008 R22/0///70 NOSIG RMK QFE725/0966
VFR 3°C / -2°C 180º 6kt >10km - Clouds and Visibility OK 1008 No Significant change. Runway 22: Clear and dry, , friction coefficient 0.70. UACC 260030Z 18003MPS CAVOK 03/M02 Q1008 R22/0///70 NOSIG RMK QFE725/0967
VFR 3°C / -2°C 190º 8kt >10km - Clouds and Visibility OK 1008 No Significant change. Runway 22: Clear and dry, , friction coefficient 0.70. UACC 260000Z 19004MPS CAVOK 03/M02 Q1008 R22/0///70 NOSIG RMK QFE725/0967
VFR 4°C / -1°C 190º 6kt >10km - Clouds and Visibility OK 1009 No Significant change. Runway 22: Clear and dry, , friction coefficient 0.70. UACC 252330Z 19003MPS CAVOK 04/M01 Q1009 R22/0///70 NOSIG RMK QFE725/0967
VFR 4°C / -1°C 190º 8kt >10km - Clouds and Visibility OK 1009 No Significant change. Runway 22: Clear and dry, , friction coefficient 0.70. UACC 252300Z 19004MPS CAVOK 04/M01 Q1009 R22/0///70 NOSIG RMK QFE726/0968
VFR 4°C / -1°C 200º 8kt >10km - Clouds and Visibility OK 1009 No Significant change. Runway 22: Clear and dry, , friction coefficient 0.70. UACC 252230Z 20004MPS CAVOK 04/M01 Q1009 R22/0///70 NOSIG RMK QFE726/0968
VFR 3°C / -1°C 200º 6kt >10km - Clouds and Visibility OK 1009 No Significant change. Runway 22: Clear and dry, , friction coefficient 0.70. UACC 252200Z 20003MPS CAVOK 03/M01 Q1009 R22/0///70 NOSIG RMK QFE726/0968
VFR 4°C / 0°C 180º 12kt >10km - Clouds and Visibility OK 1010 No Significant change. Runway 22: Clear and dry, , friction coefficient 0.70. UACC 252130Z 18006MPS CAVOK 04/M00 Q1010 R22/0///70 NOSIG RMK QFE726/0968
VFR 4°C / -1°C 190º 8kt >10km - Clouds and Visibility OK 1010 No Significant change. Runway 22: Clear and dry, , friction coefficient 0.70. UACC 252100Z 19004MPS CAVOK 04/M01 Q1010 R22/0///70 NOSIG RMK QFE727/0969

VFR

6°C / -1°C

[Daha fazla]
Rüzgar 330º variable 300º to 360º 14kt
Görünürlük >10km
Hava -
Bulutlar Few Clouds 2300ft
Basınç 1012
Değiştir No Significant change. Runway 04: Clear and dry, , friction coefficient 0.70.
Ham UACC 260830Z 33007MPS 300V360 9999 FEW023CB 06/M01 Q1012 R04/0///70 NOSIG RMK QFE727/0970

VFR

8°C / 2°C

[Daha fazla]
Rüzgar 310º 14kt
Görünürlük >10km
Hava -
Bulutlar Few Clouds 2600ft
Basınç 1011
Değiştir No Significant change. Runway 22: Clear and dry, , friction coefficient 0.70.
Ham UACC 260800Z 31007MPS 9999 FEW026CB 08/02 Q1011 R22/0///70 NOSIG RMK QFE727/0969

VFR

9°C / 1°C

[Daha fazla]
Rüzgar 310º 14kt
Görünürlük >10km
Hava -
Bulutlar Scattered Clouds 3000ft
Basınç 1010
Değiştir No Significant change. Runway 22: Clear and dry, , friction coefficient 0.70.
Ham UACC 260730Z 31007MPS 9999 SCT030 09/01 Q1010 R22/0///70 NOSIG RMK QFE726/0969

VFR

9°C / 1°C

[Daha fazla]
Rüzgar 300º 12kt
Görünürlük >10km
Hava -
Bulutlar Clouds and Visibility OK
Basınç 1009
Değiştir No Significant change. Runway 22: Clear and dry, , friction coefficient 0.70.
Ham UACC 260700Z 30006MPS CAVOK 09/01 Q1009 R22/0///70 NOSIG RMK QFE726/0968

VFR

9°C / 0°C

[Daha fazla]
Rüzgar 300º variable 270º to 330º 10kt
Görünürlük >10km
Hava -
Bulutlar Clouds and Visibility OK
Basınç 1009
Değiştir No Significant change. Runway 22: Clear and dry, , friction coefficient 0.70.
Ham UACC 260630Z 30005MPS 270V330 CAVOK 09/00 Q1009 R22/0///70 NOSIG RMK QFE725/0967

VFR

9°C / 0°C

[Daha fazla]
Rüzgar 290º 10kt
Görünürlük >10km
Hava -
Bulutlar Few Clouds 1400ft
Basınç 1008
Değiştir No Significant change. Runway 22: Clear and dry, , friction coefficient 0.70.
Ham UACC 260600Z 29005MPS 9999 FEW014 09/00 Q1008 R22/0///70 NOSIG RMK QFE725/0967

VFR

8°C / -1°C

[Daha fazla]
Rüzgar 270º variable 250º to 310º 12kt
Görünürlük >10km
Hava -
Bulutlar Few Clouds 1400ft
Basınç 1008
Değiştir No Significant change. Runway 22: Clear and dry, , friction coefficient 0.70.
Ham UACC 260530Z 27006MPS 250V310 9999 FEW014 08/M01 Q1008 R22/0///70 NOSIG RMK QFE725/0967

VFR

8°C / -2°C

[Daha fazla]
Rüzgar 250º 12kt
Görünürlük >10km
Hava -
Bulutlar Clouds and Visibility OK
Basınç 1008
Değiştir No Significant change. Runway 22: Clear and dry, , friction coefficient 0.70.
Ham UACC 260500Z 25006MPS CAVOK 08/M02 Q1008 R22/0///70 NOSIG RMK QFE725/0967

VFR

8°C / -2°C

[Daha fazla]
Rüzgar 240º 12kt
Görünürlük >10km
Hava -
Bulutlar Clouds and Visibility OK
Basınç 1008
Değiştir No Significant change. Runway 22: Clear and dry, , friction coefficient 0.70.
Ham UACC 260430Z 24006MPS CAVOK 08/M02 Q1008 R22/0///70 NOSIG RMK QFE725/0967

VFR

7°C / -2°C

[Daha fazla]
Rüzgar 220º 12kt
Görünürlük >10km
Hava -
Bulutlar Clouds and Visibility OK
Basınç 1008
Değiştir No Significant change. Runway 22: Clear and dry, , friction coefficient 0.70.
Ham UACC 260400Z 22006MPS CAVOK 07/M02 Q1008 R22/0///70 NOSIG RMK QFE725/0966

VFR

5°C / -2°C

[Daha fazla]
Rüzgar 220º 12kt
Görünürlük >10km
Hava -
Bulutlar Clouds and Visibility OK
Basınç 1008
Değiştir No Significant change. Runway 22: Clear and dry, , friction coefficient 0.70.
Ham UACC 260330Z 22006MPS CAVOK 05/M02 Q1008 R22/0///70 NOSIG RMK QFE725/0966

VFR

5°C / -2°C

[Daha fazla]
Rüzgar 210º 10kt
Görünürlük >10km
Hava -
Bulutlar Clouds and Visibility OK
Basınç 1007
Değiştir No Significant change. Runway 22: Clear and dry, , friction coefficient 0.70.
Ham UACC 260300Z 21005MPS CAVOK 05/M02 Q1007 R22/0///70 NOSIG RMK QFE725/0966

VFR

5°C / -2°C

[Daha fazla]
Rüzgar 210º 8kt
Görünürlük >10km
Hava -
Bulutlar Clouds and Visibility OK
Basınç 1007
Değiştir No Significant change. Runway 22: Clear and dry, , friction coefficient 0.70.
Ham UACC 260230Z 21004MPS CAVOK 05/M02 Q1007 R22/0///70 NOSIG RMK QFE725/0966

VFR

4°C / -3°C

[Daha fazla]
Rüzgar 200º 10kt
Görünürlük >10km
Hava -
Bulutlar Clouds and Visibility OK
Basınç 1007
Değiştir No Significant change. Runway 22: Clear and dry, , friction coefficient 0.70.
Ham UACC 260200Z 20005MPS CAVOK 04/M03 Q1007 R22/0///70 NOSIG RMK QFE725/0966

VFR

4°C / -3°C

[Daha fazla]
Rüzgar 200º 10kt
Görünürlük >10km
Hava -
Bulutlar Clouds and Visibility OK
Basınç 1007
Değiştir No Significant change. Runway 22: Clear and dry, , friction coefficient 0.70.
Ham UACC 260130Z 20005MPS CAVOK 04/M03 Q1007 R22/0///70 NOSIG RMK QFE725/0966

VFR

4°C / -2°C

[Daha fazla]
Rüzgar 200º 10kt
Görünürlük >10km
Hava -
Bulutlar Clouds and Visibility OK
Basınç 1008
Değiştir No Significant change. Runway 22: Clear and dry, , friction coefficient 0.70.
Ham UACC 260100Z 20005MPS CAVOK 04/M02 Q1008 R22/0///70 NOSIG RMK QFE725/0966

VFR

3°C / -2°C

[Daha fazla]
Rüzgar 180º 6kt
Görünürlük >10km
Hava -
Bulutlar Clouds and Visibility OK
Basınç 1008
Değiştir No Significant change. Runway 22: Clear and dry, , friction coefficient 0.70.
Ham UACC 260030Z 18003MPS CAVOK 03/M02 Q1008 R22/0///70 NOSIG RMK QFE725/0967

VFR

3°C / -2°C

[Daha fazla]
Rüzgar 190º 8kt
Görünürlük >10km
Hava -
Bulutlar Clouds and Visibility OK
Basınç 1008
Değiştir No Significant change. Runway 22: Clear and dry, , friction coefficient 0.70.
Ham UACC 260000Z 19004MPS CAVOK 03/M02 Q1008 R22/0///70 NOSIG RMK QFE725/0967

VFR

4°C / -1°C

[Daha fazla]
Rüzgar 190º 6kt
Görünürlük >10km
Hava -
Bulutlar Clouds and Visibility OK
Basınç 1009
Değiştir No Significant change. Runway 22: Clear and dry, , friction coefficient 0.70.
Ham UACC 252330Z 19003MPS CAVOK 04/M01 Q1009 R22/0///70 NOSIG RMK QFE725/0967

VFR

4°C / -1°C

[Daha fazla]
Rüzgar 190º 8kt
Görünürlük >10km
Hava -
Bulutlar Clouds and Visibility OK
Basınç 1009
Değiştir No Significant change. Runway 22: Clear and dry, , friction coefficient 0.70.
Ham UACC 252300Z 19004MPS CAVOK 04/M01 Q1009 R22/0///70 NOSIG RMK QFE726/0968

VFR

4°C / -1°C

[Daha fazla]
Rüzgar 200º 8kt
Görünürlük >10km
Hava -
Bulutlar Clouds and Visibility OK
Basınç 1009
Değiştir No Significant change. Runway 22: Clear and dry, , friction coefficient 0.70.
Ham UACC 252230Z 20004MPS CAVOK 04/M01 Q1009 R22/0///70 NOSIG RMK QFE726/0968

VFR

3°C / -1°C

[Daha fazla]
Rüzgar 200º 6kt
Görünürlük >10km
Hava -
Bulutlar Clouds and Visibility OK
Basınç 1009
Değiştir No Significant change. Runway 22: Clear and dry, , friction coefficient 0.70.
Ham UACC 252200Z 20003MPS CAVOK 03/M01 Q1009 R22/0///70 NOSIG RMK QFE726/0968

VFR

4°C / 0°C

[Daha fazla]
Rüzgar 180º 12kt
Görünürlük >10km
Hava -
Bulutlar Clouds and Visibility OK
Basınç 1010
Değiştir No Significant change. Runway 22: Clear and dry, , friction coefficient 0.70.
Ham UACC 252130Z 18006MPS CAVOK 04/M00 Q1010 R22/0///70 NOSIG RMK QFE726/0968

VFR

4°C / -1°C

[Daha fazla]
Rüzgar 190º 8kt
Görünürlük >10km
Hava -
Bulutlar Clouds and Visibility OK
Basınç 1010
Değiştir No Significant change. Runway 22: Clear and dry, , friction coefficient 0.70.
Ham UACC 252100Z 19004MPS CAVOK 04/M01 Q1010 R22/0///70 NOSIG RMK QFE727/0969

51.02°K 71.47°D (UACC) için TAF

From till


Maximum Temperature 10ºC on . Minimum Temperature -6ºC on .
From till Wind 300º 17kt. Visibility 10km or more. Scattered Clouds 3000ft. Broken Clouds 10000ft.
Temporarly from till Wind 320º 19kt. Gust 29kt. Light Showers Rain . Scattered Clouds 1100ft. Broken Clouds 2000ft.
Becoming from till Wind 350º 10kt. Visibility 10km or more. Scattered Clouds 1100ft. Broken Clouds 3000ft.
Becoming from till Wind variable 4kt. Visibility 10km or more. Scattered Clouds 1100ft. Broken Clouds 3000ft.

Ham: TAF UACC 260502Z 2606/2706 30009MPS 9999 SCT030CB BKN100 TX10/2607Z TNM06/2701Z TEMPO 2606/2614 32010G15MPS -SHRA SCT011 BKN020CB BECMG 2614/2616 35005MPS SCT011 BKN030 BECMG 2619/2621 VRB02MPS

51.02°K 71.47°D için şu anki uydu ve yağmur görüntüleri

Konum işaretleyici 51.02°K 71.47°D üzerine yerleştirilir. [Daha fazla]

Gerçek zamanlı uydu görüntüsü gündüz süresince görülür ışığı gece süresince kızılötesi ışınım ile birleştirir. Gece kızılötesi ışınım sıcaklık farklarını algılayabildiğinden dolayı görüntü karanlık değildir. Ancak düşük bulutları ve sisi yer sıcaklığından ayırmak zordur ve bu nedenle gece boyunca neredeyse görünmez olabilirler. Avrupa için Meteosat uydu görüntüleri gerçek zamanlı olarak her 5 dakikada bir güncellenir. GOES-16/GOES-17 (Kuzey ve Güney Amerika) ve Himawari (Asya) görüntüleri her 10 dakikada bir güncellenir.

Copyright 2021 EUMETSAT / meteoblue. / Copyright 2021 meteoblue

51.02°K 71.47°D için radar ve yağış nowcast

Çise
Hafif
Orta
Ağır
Çok ağır
Selamlamak

Konum işaretleyicisi 51.02°K 71.47°D üzerine yerleştirilir. Bu animasyon son saat içerisindeki yağış radarını ve 1h tahminini gösterir. Hafif yağmur veya kar yağışı radar için görünmez olabilir. Yağış şiddeti açık mavi ile koyu mor arasındaki renklerle kodlanmıştır.